Regional Weather Roundup
Issued by NWS

Home | Current Version | Previous Version | Text Only | Print | Product List | Glossary Off
Versions: 1 2 3 4 5 6 7 8 9 10 11 12 13 14 15 16 17 18 19 20 21 22 23 24 25 26 27 28 29 30 31 32 33 34 35 36 37 38 39 40 41 42 43 44 45 46 47 48 49 50

275
ASUS45 KBOU 271307
RWRCO

WEATHER ROUNDUP FOR COLORADO
NATIONAL WEATHER SERVICE DENVER/BOULDER CO
700 AM MDT TUE JUN 27 2017

NOTE: "FAIR" INDICATES FEW OR NO CLOUDS BELOW 12000 FEET WITH NO
SIGNIFICANT WEATHER AND/OR OBSTRUCTIONS TO VISIBILITY.

COZ001>005-013-030-031-271400-
...NORTHWEST COLORADO...

CITY           SKY/WX    TMP DP  RH WIND       PRES   REMARKS
CRAIG          FAIR      52  40  63 CALM      30.06S
HAYDEN         FAIR      55  34  44 E10       30.08F
MEEKER         FAIR      54  36  50 NE6       30.08R
RABBIT EARS PA CLOUDY    52  30  43 S9        30.38S
STEAMBOAT SPGS FAIR      49  36  61 NE3       30.12S
WALDEN         FAIR      45  34  65 SE7       30.21F
$$

COZ006>008-011-271400-
...WEST CENTRAL VALLEYS...

CITY           SKY/WX    TMP DP  RH WIND       PRES   REMARKS
GRAND JUNCTION FAIR      73  33  23 SE12      29.97R
MONTROSE       FAIR      70  35  27 E10       30.09R
EAGLE          MOSUNNY   52  30  43 S6        30.19R
RIFLE          FAIR      58  31  35 CALM      30.06R
DELTA          FAIR      66  32  28 E8        30.05R
NUCLA          FAIR      68  32  26 E6        30.14R
$$

COZ017>023-064>068-271400-
...SOUTHWEST COLORADO...

CITY           SKY/WX    TMP DP  RH WIND       PRES   REMARKS
DURANGO        FAIR      54  39  57 NE5       30.24R
CORTEZ         FAIR      60  43  53 NE6       30.15R
PAGOSA SPRINGS FAIR      52  39  62 CALM      30.32S
TELLURIDE      FAIR      60  33  35 CALM      30.38R
WOLF CREEK PAS FAIR      43  34  70 SW13      30.62R
$$

COZ009-010-012-014-032>034-037-058>063-271400-
...CENTRAL COLORADO...

CITY           SKY/WX    TMP DP  RH WIND       PRES   REMARKS
ASPEN          FAIR      59  35  40 SW6       30.21F
BUENA VISTA    FAIR      51  36  56 NW6       30.31S
COPPER MTN     FAIR      54  27  35 S18G24    30.54R
BERTHOUD PASS  FAIR      46  32  57 W32G47    30.53R
COTTONWOOD PAS FAIR      55  34  44 NE3       30.41S
GUNNISON       FAIR      53  37  54 N5        30.30R
KREMMLING      NOT AVBL
LEADVILLE      FAIR      44  33  65 CALM      30.39F
MONARCH PASS   FAIR      43  30  61 SW18      30.66S
SALIDA         FAIR      65  36  34 S12G20    30.34S
SUNLIGHT       FAIR      52  27  37 SW17G28   30.43S
WILKERSON PASS FAIR      45  30  57 SW18G25   30.49S
$$

COZ069>075-271400-
...SAN LUIS VALLEY/SANGRE DE CRISTO MOUNTAINS...

CITY           SKY/WX    TMP DP  RH WIND       PRES   REMARKS
ALAMOSA        FAIR      54  41  61 E6        30.30S
DEL NORTE      FAIR      48  41  76 W3        30.34S
LA VETA PASS   FAIR      48  36  61 S21G35    30.55R
SAGUACHE       PTSUNNY   52  34  50 NW6       30.35R
$$

COZ035-036-038>040-271400-
...NORTHERN COLORADO FRONT RANGE...

CITY           SKY/WX    TMP DP  RH WIND       PRES   REMARKS
DENVER INTL AP FAIR      66  51  58 CALM      29.99F
DMNS CITY PARK   N/A     65  53  65 NE3G13    29.99F
AURORA         MOSUNNY   67  39  36 S14       30.01F
FRONT RANGE AP FAIR      73  39  29 S9        30.01F
ERIE MUNI ARPT FAIR      57  53  85 CALM      29.99F
BOULDER MUN AP FAIR      61  52  72 CALM      29.99F
CENTENNIAL     PTSUNNY   66  39  37 S6        30.03F
BROOMFIELD     FAIR      61  55  82 CALM      30.02S
FORT COLLINS   FAIR      59  56  89 N9        30.00S
LONGMONT       FAIR      61  52  73 CALM      30.00F
$$

COZ041-046-047-076>085-087-088-271400-
...PIKES PEAK/PALMER DIVIDE AND SOUTHERN FOOTHILLS...

CITY           SKY/WX    TMP DP  RH WIND       PRES   REMARKS
COLO. SPRINGS  FAIR      62  43  49 SE5       30.12R
A. F. ACADEMY  FAIR      54  45  71 CALM      30.13R
SCHRIEVER AFB  FAIR      59  44  56 E3        30.12S
CHEYENNE MTN   FAIR      65  39  38 CALM      30.10S
ELLICOTT       FAIR     N/A N/A N/A S7        30.09F
FALCON           N/A     59  39  46 CALM      30.16S
FORT CARSON    FAIR      60  44  54 NE5       30.08F
LIMON          FOG       55  55 100 SE9       30.06F VSB 3/4
MONUMENT HILL  FAIR      59  37  44 SW9       30.16S
CANON CITY     SUNNY     68  43  40 W12       30.07S
WALSENBURG     FAIR      73  41  31 W15G24    30.12S
TRINIDAD       FAIR      66  48  52 W15       30.11F
$$

COZ042>045-048>051-090-091-271400-
...NORTHEAST COLORADO...

CITY           SKY/WX    TMP DP  RH WIND       PRES   REMARKS
GREELEY ARPT   FAIR      59  56  89 N5        29.97F
AKRON          FAIR      61  57  87 SE15      29.99F
BURLINGTON     FOG       59  59 100 S12       30.03S VSB 1/4
WRAY           CLOUDY   N/A N/A N/A SE13      30.01F
YUMA           CLOUDY    59  54  82 SE16      29.99F
STERLING       FAIR      64  59  82 S12       29.95F
HOLYOKE        NOT AVBL
FORT MORGAN    FAIR      62  56  82 E5        29.97F
$$

COZ086-089-092>099-271400-
...SOUTHEAST COLORADO...

CITY           SKY/WX    TMP DP  RH WIND       PRES   REMARKS
PUEBLO         FAIR      59  46  62 W3        30.04S
LA JUNTA       FAIR      64  51  62 SE8       30.02F
LAMAR          FAIR      58  55  90 CALM      30.00S
SPRINGFIELD      N/A     61  52  72 SW5       30.06S
$$




USA.gov is the U.S. government's official web portal to all federal, state and local government web resources and services.